Regional Weather Roundup
Issued by NWS

Home | Current Version | Previous Version | Text Only | Print | Product List | Glossary Off
Versions: 1 2 3 4 5 6 7 8 9 10 11 12 13 14 15 16 17 18 19 20 21 22 23 24 25 26 27 28 29 30 31 32 33 34 35 36 37 38 39 40 41 42 43 44 45 46 47 48 49 50

000
ASUS45 KTFX 250404
RWRMT
MONTANA HOURLY WEATHER ROUNDUP
NATIONAL WEATHER SERVICE GREAT FALLS MT
904 PM MST SAT JAN 24 2015

NOTE: "FAIR" INDICATES FEW OR NO CLOUDS BELOW 12000 FEET WITH NO
SIGNIFICANT WEATHER AND/OR OBSTRUCTIONS TO VISIBILITY.

* THESE STATIONS ARE NOT UNDER NWS QUALITY CONTROL. THEY DO NOT
   REPORT WEATHER SUCH AS PRECIPITATION OR FOG.

MTZ001>007-043-250500-
WEST OF THE DIVIDE
CITY           SKY/WX    TMP DP  RH WIND       PRES   REMARKS
KALISPELL      LGT RAIN  39  37  93 SW3       30.22S
MISSOULA       CLOUDY    36  34  92 CALM      30.28F
BUTTE          CLOUDY    36  32  85 CALM      30.27F
MULLAN PASS    LGT RAIN  36  36 100 SW8       30.25F VSB 1/2  WCI  30
* ANACONDA     PTCLDY    43  36  76 SW10       N/A
* ESSEX        N/A       34  33  96 S1         N/A
* LINCOLN      N/A       42  35  76 W2G9       N/A
* LOOKOUT PASS N/A       38  38 100 N/A        N/A
* POLSON       N/A       38  38 100 SE2        N/A
* RONAN APT    MOCLDY    37  37 100 N/A        N/A
* SEELEY LAKE  N/A       35  34  96 N2         N/A
* THOMP F APT  PTCLDY    20  17  88 NE1        N/A
$$

MTZ008-052>055-250500-
SOUTHWEST MONTANA
CITY           SKY/WX    TMP DP  RH WIND       PRES   REMARKS
BOZEMAN        MOCLDY    37  30  76 SE5       30.26F WCI  33
DILLON         CLOUDY    43  34  71 SW12      30.27S
* W YELLOWSTON PTCLDY    23  21  92 N/A        N/A
* THREE FORKS  CLOUDY    41  36  82 SW7        N/A
* BOULDER HILL N/A       40  29  65 S6         N/A   WCI  36
* MONIDA PASS  N/A       20  20 100 SE17       N/A   WCI   5
* RAYNOLDS PAS N/A       22   6  50 SE20G26    N/A   WCI   7
* WHITEHALL    N/A       46  34  63 W5         N/A
* WISE RIVER   N/A       37  33  85 W5         N/A   WCI  33
$$

MTZ009>010-012-014-046-048-049-054-250500-
EAST SLOPES AND CENTRAL MONTANA
CITY           SKY/WX    TMP DP  RH WIND       PRES   REMARKS
CUT BANK       MOCLDY    43  32  65 W17G23    30.05F
GREAT FALLS    CLOUDY    43  32  65 SW12      30.12F
HELENA         CLOUDY    46  37  71 W7        30.21S
MALMSTROM AFB  CLOUDY    43  34  71 W13       30.12F
* DEARBORN     N/A       50  33  52 S6G13      N/A
* EAST GLACIER N/A       41  34  76 W32G38     N/A
* MONARCH      N/A       40  24  53 SW15G21    N/A   WCI  32
* PENDROY      N/A       45  33  63 NW12       N/A
* ROGERS PASS  N/A       39  34  82 SE12G24    N/A   WCI  32
* SWEET GRASS  N/A       42  29  60 W12        N/A
$$

MTZ011-013-016-021-035-040-045-047-050-051-250500-
NORTH CENTRAL MONTANA
CITY           SKY/WX    TMP DP  RH WIND       PRES   REMARKS
HAVRE          MOCLDY    36  30  79 SW10      30.09F WCI  29
LEWISTOWN      PTCLDY    37  28  70 SW9       30.12F WCI  30
* N BAR RANCH  CLEAR     39  28  65 NW16      30.10F WCI  30
* CHESTER      N/A       34  27  76 S3         N/A
* DENTON       N/A       38  29  70 W11        N/A   WCI  31
* GEYSER       N/A       44  28  53 SW14G19    N/A
* JUDITH GAP   N/A       36  30  79 W4         N/A
* LOMA         N/A       39  32  76 W4         N/A
$$

MTZ017>020-022>027-061-062-250500-
NORTHEAST MONTANA
CITY           SKY/WX    TMP DP  RH WIND       PRES   REMARKS
GLASGOW        CLEAR     34  28  79 NW9       30.01S WCI  27
GLENDIVE       CLEAR     36  28  73 W16       29.98F WCI  26
JORDAN         CLEAR     32  28  85 NW9       30.05F WCI  24
SIDNEY         CLEAR     36  30  79 W10       29.94F WCI  29
WOLF POINT     CLEAR     36  30  79 W12       29.96F WCI  28
* BEAVER HILL  N/A       35  31  85 W17G23     N/A   WCI  25
* CIRCLE       N/A       36  31  82 SW5G10     N/A   WCI  32
* LINDSAY DVD  N/A       34  30  85 W18G24     N/A   WCI  23
* NAVAJO       N/A       35  29  79 NW24G33    N/A   WCI  23
* SACO         N/A       33  28  82 W11        N/A   WCI  24
$$

MTZ028>042-056>058-250500-
SOUTHCENTRAL AND SOUTHEAST MONTANA
CITY           SKY/WX    TMP DP  RH WIND       PRES   REMARKS
BAKER          CLEAR     36  30  79 NW15G24   29.99R WCI  27
BILLINGS       FAIR      46  28  50 W15       30.12F
LIVINGSTON     PTCLDY    46  28  50 SW24G32   30.18F
MILES CITY     PTCLDY    37  28  70 NW10      30.04S WCI  30
* LAUREL APT   CLEAR     39  19  45 N/A        N/A
* ROUNDUP APT  PTCLDY    37  27  67 N/A        N/A
* ALZADA       N/A       35  28  76 W12G17     N/A   WCI  27
* HYSHAM       N/A       37  24  59 W2         N/A
* LAME DEER    N/A       36  24  62 NW9G14     N/A   WCI  29
* REED POINT   N/A       50  32  50 W19G27     N/A
* ROSCOE HILL  N/A       46  16  30 W7G17      N/A
$$

REGIONAL REPORTS...DAKOTAS
CITY           SKY/WX    TMP DP  RH WIND       PRES   REMARKS
WILLISTON      CLOUDY    37  30  76 W15       29.89S WCI  28
DICKINSON      CLOUDY    37  30  76 NW21G38   29.87R WCI  26
CROSBY         CLOUDY    36  36 100 NW21G28   29.84S WCI  25
WATFORD CITY   CLOUDY    36  32  85 W10       29.88S WCI  29
BISMARCK       LGT RAIN  36  32  85 NW10      29.81R WCI  29
GRAND FORKS    CLOUDY    21  18  88 N14       29.84R WCI   8
FARGO          CLOUDY    32  28  85 N13       29.76R WCI  22
BUFFALO SD     CLEAR     37  30  76 NW36G44   29.87R WCI  23
RAPID CITY     PTCLDY    43  27  53 NW30G41   29.95R
$$

REGIONAL REPORTS...WYOMING/IDAHO/WASHINGTON
CITY           SKY/WX    TMP DP  RH WIND       PRES   REMARKS
GILLETTE       PTCLDY    34  28  79 W15       30.11R WCI  24
SHERIDAN       MOCLDY    36  30  79 CALM      30.14R
CODY           PTCLDY    43  23  45 SW8       30.16R
YELLOWSTONE LA PTCLDY    23  21  92 CALM      30.36F
SALMON         CLOUDY    30  27  89 CALM      30.39F
MULLAN PASS    LGT RAIN  36  36 100 SW8       30.25S VSB 1/2  WCI  30
SAND POINT     N/A       34  34 100 CALM      30.26F VSB 1/2
SPOKANE        FOG       37  37 100 E6        30.24S VSB M1/4 WCI  32

$$




USA.gov is the U.S. government's official web portal to all federal, state and local government web resources and services.